FW5230 Weather Reports


time (UTC)temp
C
wind
direction
speed
KPH
gust
KPH
rain 1hr
cm
rain 24hr
cm
rain mn
cm
humidity
%
barometer
mb
20260505183014 22 57 8.0 25.7 0.00 0.00 0.00 55 1003.4
20260505181511 22 224 6.4 22.5 0.00 0.00 0.00 56 1003.6
20260505180008 22 171 8.0 25.7 0.00 0.00 0.00 55 1003.9
20260505174515 22 172 8.0 25.7 0.00 0.00 0.00 54 1004.1
20260505173005 22 252 6.4 22.5 0.00 0.00 0.00 54 1004.3
20260505171505 22 263 8.0 19.3 0.00 0.00 0.00 53 1004.4
20260505170004 22 182 6.4 25.7 0.00 0.00 0.00 54 1004.6
20260505164559 22 263 11.3 30.6 0.00 0.00 0.00 55 1004.8
20260505163057 22 220 4.8 17.7 0.00 0.00 0.00 56 1005.1
20260505161601 21 195 4.8 19.3 0.00 0.00 0.00 55 1005.5
20260505153057 21 196 8.0 22.5 0.00 0.00 0.00 54 1005.9
20260505151551 20 199 6.4 25.7 0.00 0.00 0.00 54 1006.1
20260505124520 15 234 8.0 19.3 0.00 0.00 0.00 67 1007.1
20260505123016 15 263 1.6 16.1 0.00 0.00 0.00 71 1007.1
20260505121514 13 243 3.2 14.5 0.00 0.00 0.00 74 1007.2
20260505120009 13 209 6.4 19.3 0.00 0.00 0.00 76 1007.3
20260505114504 11 266 3.2 12.9 0.00 0.00 0.00 83 1007.6
20260505113105 9 228 3.2 8.0 0.00 0.00 0.00 93 1007.5
20260505111608 7 259 0.0 1.6 0.00 0.00 0.00 99 1007.4
20260505101555 3 355 0.0 1.6 0.00 0.00 0.00 97 1007.3
20260505100054 3 130 0.0 0.0 0.00 0.00 0.00 96 1007.3
20260505094553 3 130 0.0 0.0 0.00 0.00 0.00 97 1007.3
20260505093052 3 130 0.0 0.0 0.00 0.00 0.00 97 1007.2
20260505091551 3 130 0.0 0.0 0.00 0.00 0.00 97 1007.2
20260505090055 3 130 0.0 0.0 0.00 0.00 0.00 96 1007.3
20260505084551 3 130 0.0 0.0 0.00 0.00 0.00 96 1007.4
20260505083101 3 130 0.0 0.0 0.00 0.00 0.00 96 1007.5
20260505081553 3 130 0.0 0.0 0.00 0.00 0.00 95 1007.5
20260505080047 4 130 0.0 0.0 0.00 0.00 0.00 96 1007.5
20260505074547 4 130 0.0 0.0 0.00 0.00 0.00 96 1007.4
20260505073047 3 142 0.0 0.0 0.00 0.00 0.00 97 1007.4
20260505071545 3 144 0.0 0.0 0.00 0.00 0.00 95 1007.5
20260505070050 3 144 0.0 0.0 0.00 0.00 0.00 95 1007.4
20260505064556 3 144 0.0 0.0 0.00 0.00 0.00 95 1007.3
20260505063050 4 144 0.0 0.0 0.00 0.00 0.00 95 1007.3
20260505061544 4 144 0.0 0.0 0.00 0.00 0.00 94 1007.4
20260505060039 5 144 0.0 0.0 0.00 0.00 0.00 94 1007.5
20260505054536 5 144 0.0 0.0 0.00 0.00 0.00 94 1007.4
20260505053034 5 144 0.0 1.6 0.00 0.00 0.00 95 1007.3
20260505051534 5 60 0.0 0.0 0.00 0.00 0.00 94 1007.3
20260505041531 6 82 0.0 0.0 0.00 0.00 0.00 91 1007.0
20260505040021 7 42 0.0 0.0 0.00 0.00 0.00 91 1007.1
20260505034519 8 42 0.0 0.0 0.00 0.00 0.00 89 1007.2
20260505033020 8 42 0.0 0.0 0.00 0.00 0.00 89 1007.1
20260505031519 8 42 0.0 0.0 0.00 0.00 0.00 88 1007.2
20260505030018 8 42 0.0 3.2 0.00 0.00 0.00 88 1007.3
20260505024534 9 118 0.0 1.6 0.00 0.00 0.00 86 1007.2
20260505023017 9 5 0.0 1.6 0.00 0.00 0.00 85 1007.2
20260505021518 10 106 0.0 4.8 0.00 0.00 0.00 85 1007.3
20260505020016 9 91 1.6 4.8 0.00 0.00 0.00 87 1007.5
20260505014514 9 293 0.0 1.6 0.00 0.00 0.00 88 1007.3
20260505013020 10 293 0.0 0.0 0.00 0.00 0.00 85 1007.0
20260505011513 10 293 0.0 0.0 0.00 0.00 0.00 83 1006.9
20260505010013 11 293 0.0 1.6 0.00 0.00 0.00 79 1006.6
20260505004515 11 293 0.0 1.6 0.00 0.00 0.00 79 1006.6
20260505003015 12 293 0.0 0.0 0.00 0.00 0.00 76 1006.4
20260505001515 12 293 0.0 0.0 0.00 0.00 0.00 74 1006.2
20260505000026 13 293 0.0 0.0 0.00 0.00 0.00 71 1006.1
20260504234511 13 293 0.0 0.0 0.00 0.00 0.00 68 1006.0
20260504233017 14 293 0.0 1.6 0.00 0.00 0.00 65 1005.7
20260504231523 15 288 0.0 4.8 0.00 0.00 0.00 62 1005.6
20260504230015 15 290 1.6 6.4 0.00 0.00 0.00 61 1005.4
20260504224507 16 334 4.8 9.7 0.00 0.00 0.00 59 1005.3
20260504223007 15 315 4.8 14.5 0.00 0.00 0.00 60 1005.2
20260504221507 15 269 3.2 8.0 0.00 0.00 0.00 60 1005.0
20260504220012 15 298 3.2 14.5 0.00 0.00 0.00 60 1005.1
20260504214508 16 282 8.0 14.5 0.00 0.00 0.00 58 1004.9
20260504213009 16 302 4.8 12.9 0.00 0.00 0.00 59 1004.7
20260504211505 15 282 6.4 16.1 0.00 0.00 0.00 60 1004.8
20260504210004 15 298 8.0 12.9 0.00 0.00 0.00 58 1004.6
20260504204503 15 294 6.4 16.1 0.00 0.03 0.00 60 1004.5
20260504203011 15 313 9.7 20.9 0.00 0.03 0.00 60 1004.4
20260504201503 15 244 6.4 22.5 0.00 0.03 0.00 61 1004.3
20260504200003 16 251 8.0 29.0 0.00 0.03 0.00 60 1004.2
20260504194611 15 300 9.7 24.1 0.00 0.05 0.00 62 1004.1
20260504193058 15 213 9.7 27.4 0.00 0.05 0.00 63 1004.1
20260504191557 14 296 14.5 24.1 0.00 0.05 0.00 65 1004.1
20260504190125 14 244 8.0 20.9 0.00 0.05 0.00 65 1004.4
20260504184558 13 315 8.0 25.7 0.00 0.10 0.00 64 1004.4